Location: Holyhead Bay
(53.3667°N, 4.6667°W)
Time: 19:10:56
(UTC+00:00)

Cosmos 2237 Rocket - Pass Details

Date: 24 November 2020
Orbit: 833 x 851 km, 71.0° (Epoch: 17 January)

Event Time Altitude Azimuth Distance (km) Brightness Sun altitude
Rises 19:25:39 0° 238° (WSW) 3,376 6.1 -28.4°
Reaches altitude 10° 19:28:14 10° 246° (WSW) 2,447 5.3 -28.8°
Maximum altitude 19:33:29 40° 315° (NW) 1,230 3.3 -29.5°
Enters shadow 19:35:20 31° 355° (N) 1,441 3.4 -29.8°
